Astoria, OR

4:07 AM PDT on May 24, 2017 (GMT -0700)
Astoria Regional

Weather History for KAST - May, 2014

Change the Weather History Date:

Wednesday, May 14, 2014

  Actual Average Record
Temperature  
Mean Temperature 69 °F 53 °F  
Max Temperature 87 °F 60 °F 87 °F (2014)
Min Temperature 50 °F 45 °F 35 °F (1964)
Degree Days  
Heating Degree Days 0 12  
Month to date heating degree days 131 186  
Since 1 July heating degree days 4513 4595  
Cooling Degree Days 4 0  
Month to date cooling degree days 8 0  
Year to date cooling degree days 11 0  
Growing Degree Days 18 (Base 50)    
Moisture  
Dew Point 51 °F    
Average Humidity 56    
Maximum Humidity 83    
Minimum Humidity 29    
Precipitation  
Precipitation 0.00 in 0.10 in 1.32 in (2001)
Month to date precipitation 4.13 1.63  
Year to date precipitation 36.83 31.67  
Sea Level Pressure  
Sea Level Pressure 30.15 in    
Wind  
Wind Speed 8 mph (ENE)    
Max Wind Speed 15 mph    
Max Gust Speed 24 mph    
Visibility 10 miles    
Events      
T = Trace of Precipitation, MM = Missing Value Source: NWS Daily Summary

Daily Weather History Graph

Daily Weather History Graph

Search for Another Location

Airport or City:

Trip Planner

Search our weather history database for the weather conditions in past years. The results will help you decide how hot, cold, wet, or windy it might be!

Date:

Astronomy

May. 14, 2014 Rise Set
Actual Time 5:43 AM PDT 8:40 PM PDT
Civil Twilight 5:08 AM PDT 9:15 PM PDT
Nautical Twilight 4:23 AM PDT 10:00 PM PDT
Astronomical Twilight 3:30 AM PDT 10:55 PM PDT
Moon 8:50 PM PDT (5/14) 5:49 AM PDT (5/14)
Length of Visible Light 16h 06m
Length of Day
14h 56m
Full, 100% of the Moon is Illuminated
May 14
Full
May 14
Full
May 21
Last Quarter
May 28
New
Jun 5
First Quarter

Hourly Weather History & Observations

Time (PDT) Temp. Heat Index Dew Point Humidity Pressure Visibility Wind Dir Wind Speed Gust Speed Precip Events Conditions
12:55 AM 55.0 °F - 50.0 °F 83% 30.26 in 10.0 mi East 3.5 mph - N/A   Clear
1:55 AM 53.6 °F - 48.2 °F 82% 30.25 in 10.0 mi ESE 4.6 mph - N/A   Clear
2:55 AM 54.0 °F - 48.9 °F 83% 30.25 in 10.0 mi SE 3.5 mph - N/A   Clear
3:55 AM 53.1 °F - 48.0 °F 83% 30.24 in 10.0 mi SSE 3.5 mph - N/A   Clear
4:55 AM 51.8 °F - 46.4 °F 82% 30.23 in 10.0 mi SE 3.5 mph - N/A   Clear
5:55 AM 51.1 °F - 46.0 °F 83% 30.24 in 10.0 mi Calm Calm - N/A   Clear
6:55 AM 55.0 °F - 48.0 °F 77% 30.24 in 10.0 mi SE 3.5 mph - N/A   Clear
7:55 AM 62.6 °F - 50.0 °F 63% 30.24 in 10.0 mi Calm Calm - N/A   Clear
8:55 AM 70.0 °F - 50.0 °F 49% 30.23 in 10.0 mi East 8.1 mph - N/A   Clear
9:55 AM 75.0 °F - 48.0 °F 38% 30.21 in 10.0 mi East 12.7 mph - N/A   Clear
10:55 AM 77.0 °F - 48.0 °F 36% 30.20 in 10.0 mi East 11.5 mph - N/A   Clear
11:55 AM 81.0 °F - 52.0 °F 36% 30.18 in 10.0 mi NE 12.7 mph - N/A   Clear
12:55 PM 82.9 °F - 50.0 °F 32% 30.16 in 10.0 mi NE 10.4 mph - N/A   Clear
1:55 PM 79.0 °F - 55.0 °F 44% 30.14 in 10.0 mi NNE 9.2 mph - N/A   Clear
2:55 PM 81.0 °F 80.5 °F 54.0 °F 39% 30.12 in 10.0 mi NNE 11.5 mph - N/A   Clear
3:55 PM 87.1 °F - 52.0 °F 30% 30.11 in 10.0 mi NE 12.7 mph - N/A   Clear
4:28 PM 75.9 °F - 57.0 °F 52% 30.10 in 10.0 mi NNW 15.0 mph - N/A   Clear
4:55 PM 77.0 °F - 55.0 °F 47% 30.09 in 10.0 mi NNW 13.8 mph - N/A   Clear
5:55 PM 78.1 °F - 55.0 °F 45% 30.07 in 10.0 mi NW 10.4 mph - N/A   Clear
6:55 PM 75.0 °F - 54.0 °F 48% 30.05 in 10.0 mi NW 10.4 mph - N/A   Clear
7:55 PM 71.1 °F - 55.0 °F 57% 30.05 in 10.0 mi NNW 5.8 mph - N/A   Clear
8:55 PM 72.0 °F - 51.1 °F 48% 30.04 in 10.0 mi NNE 3.5 mph - N/A   Clear
9:55 PM 66.9 °F - 53.1 °F 61% 30.05 in 10.0 mi Calm Calm - N/A   Clear
10:55 PM 64.0 °F - 52.0 °F 65% 30.04 in 10.0 mi Calm Calm - N/A   Clear
11:55 PM 61.0 °F - 54.0 °F 78% 30.04 in 10.0 mi ESE 4.6 mph - N/A   Clear